Find Starlink 31151

NORAD ID: 58742 Int'l Des: 2024-005 Owner: SPXS Country: US Constellation: starlink operational
LEOCIRCULAR

Current View

Loading 3D Globe...

About Starlink 31151

Starlink 31151 (NORAD 58742) is a starlink constellation satellite (v2 mini) launched Jan 7, 2024 by SPXS of US. It operates in LEO, CIRCULAR orbit with a mass of 730.00 kg.

About Starlink 31151

Description loading...

Upcoming Passes

Passes for default location (London). Set your location on the main map for personalized predictions.

Altitude History

Loading altitude history...

Two-Line Element Set

1 58742U 24005Q 26166.88747562 -.00000048 00000-0 77775-5 0 9996
2 58742 43.0058 25.0352 0001494 268.9771 91.0909 15.27573923135554
Epoch: Jun 15, 2026 • Age: 27 hours

Current Status

Altitude 487.2 km
Velocity 7.63 km/s
Sub-Earth Point 43.16°N, 162.18°W
Launch Date Jan 7, 2024
Age 2.4 years
Type internet

Technical Details

Classification Payload
Mass 730.00 kg
Dry Mass 700.00 kg
Total Mass 730.00 kg
Length 0.30 m
Diameter 4.10 m
Span 29.00 m
Shape Box + pan
Manufacturer SPXS
Bus Type Starlink V2M
Phase Status In Orbit
Owner/State SPXS/US

Most Searched